2025-292J (67001 NORAD) Tracking and Keplerian Element Data

This shows tracking and keplerian element data for the satellite.

Feedback or suggestion? Click here.




ElementValue
Catalog67001
Name2025-292J
Epoch Orbit151
Epoch Day354.19051127
Epoch Year2025
RAAN66.6711
Inclination97.6559
Eccentricity0.0014402
Argument of Perigee240.7545
Mean Anonmoly119.2241
Mean Motion15.04376821
Decay Rate3.517E-05
L11 67001U 25292J 25354.19051127 .00003517 00000+0 25591-3 0 9999
L22 67001 97.6559 66.6711 0014402 240.7545 119.2241 15.04376821 1516



Live tracking and technical data element details for 2025-292J (NORAD 67001). 2025-292J can be tracked NOW for your location showing map with azimuth and elevation plus other details from your city location.







IsCatalogInMostPopularTable: catalog: 67001, numindb: 33
Update: records affected: 1



GetName: 67001 2025-292J

Hit Count: updated at: Tue, 17 Feb 2026 11:15:07 GMT